Location: Gradaro
(45.0833°N, 10.8833°E)
Time: 14:16:42
(UTC+00:00)

Cosmos 923 Rocket - Pass Details

Date: 29 November 2020
Orbit: 757 x 786 km, 74.0° (Epoch: 24 January)

Event Time Altitude Azimuth Distance (km) Brightness Sun altitude
Exits shadow 03:53:47 51° 9° (N) 970 4.4 -27.4°
Maximum altitude 03:54:57 67° 67° (ENE) 841 4.2 -27.2°
Drops below altitude 10° 04:00:14 10° 150° (SSE) 2,329 6.9 -26.3°
Sets 04:02:38 0° 153° (SSE) 3,257 7.7 -25.9°
